Regional Weather Roundup
Issued by NWS

Home | Current Version | Previous Version | Graphics & Text | Print | Product List | Glossary On
Versions: 1 2 3 4 5 6 7 8 9 10 11 12 13 14 15 16 17 18 19 20 21 22 23 24 25 26 27 28 29 30 31 32 33 34 35 36 37 38 39 40 41 42 43 44 45 46 47 48 49 50
809
ASUS43 KDMX 201301
RWRIA

WEATHER ROUNDUP FOR IOWA
NATIONAL WEATHER SERVICE DES MOINES IA
700 AM CST SAT JAN 20 2018

NOTE: "FAIR" INDICATES FEW OR NO CLOUDS BELOW 12,000 FEET WITH NO
SIGNIFICANT WEATHER AND/OR OBSTRUCTIONS TO VISIBILITY.

* - THESE STATIONS ARE NOT NWS STATIONS...THUS NOT UNDER NWS
QUALITY CONTROL.  THEY ALSO DO NOT REPORT WEATHER SUCH
AS PRECIPITATION OR FOG.

IAZ001>003-012>014-020>022-031>034-043>046-201400-
   NORTHWEST IOWA

CITY           SKY/WX    TMP DP  RH WIND       PRES   REMARKS
CARROLL *      CLOUDY    28  27  93 CALM      29.83S
CHEROKEE *     PTCLDY    24  24 100 CALM      29.84S
DENISON *      CLOUDY    25  25 100 CALM      29.84R
LE MARS *      MOCLDY    23  23 100 N5        29.84R WCI  17
ORANGE CITY *  PTCLDY    30  28  93 CALM      29.84R
SHELDON *      CLOUDY    25  25 100 CALM      29.82R
SIOUX CITY     CLOUDY    25  24  96 CALM      29.83S
SPENCER        CLOUDY    23  20  88 W5        29.83R WCI  17
STORM LAKE *   CLOUDY    32  30  93 NE6       29.82S WCI  26
$$

IAZ055>058-069>071-079>083-090>094-201400-
   SOUTHWEST IOWA

CITY           SKY/WX    TMP DP  RH WIND       PRES   REMARKS
ATLANTIC *     CLOUDY    23  23 100 N6        29.84R WCI  16
AUDUBON *      CLOUDY    21  19  93 CALM      29.83R
CLARINDA *     CLOUDY    25  25 100 SW5       29.86R WCI  19
COUNCIL BLFS * CLOUDY    27  27 100 N5        29.81S WCI  21
CRESTON *      CLOUDY    30  28  93 S7        29.84S WCI  23
HARLAN  *      CLOUDY    23  23 100 CALM      29.86R
LAMONI         CLEAR     31  28  89 S9        29.85R WCI  23
RED OAK *      CLOUDY    25  23  93 CALM      29.84R
SHENANDOAH *   CLOUDY    27  25  93 CALM      29.84R
$$

IAZ047>049-059>061-072>074-084-201400-
   CENTRAL IOWA

CITY           SKY/WX    TMP DP  RH WIND       PRES   REMARKS
AMES           CLOUDY    27  26  96 CALM      29.84R
ANKENY *       CLOUDY    23  23 100 CALM      29.86R
BOONE *        PTCLDY    28  27  93 CALM      29.82S
CHARITON *     CLOUDY    34  30  86 SW6       29.85R WCI  29
DES MOINES     CLOUDY    30  25  81 S5        29.84R WCI  25
GRINNELL*      CLOUDY    29  26  87 SW8       29.85R WCI  21
KNOXVILLE *    CLOUDY    32  27  80 SW7       29.84R WCI  26
MARSHALLTOWN   PTCLDY    27  25  92 W3        29.84R
NEWTON *       CLOUDY    30  27  86 SW5       29.85R WCI  25
PELLA *        CLOUDY    32  27  80 S5        29.87R WCI  27
PERRY *          N/A     25  24  97 N5        29.83F WCI  19
$$

IAZ004>006-015-016-023>025-035-036-201400-
   NORTH CENTRAL IOWA

CITY           SKY/WX    TMP DP  RH WIND       PRES   REMARKS
ALGONA *       CLOUDY    30 N/A N/A CALM      29.82S
CLARION *      PTCLDY    23  23 100 CALM      29.84R
ESTHERVILLE    CLOUDY    25  24  96 W5        29.83R WCI  19
FORT DODGE *   PTCLDY    24  23  96 CALM      29.83S
MASON CITY     CLOUDY    26  24  92 CALM      29.83S
FOREST CITY *    N/A     27  27 100 CALM      29.81F
WEBSTER CITY * PTCLDY    27  25  93 N5        29.82S WCI  21
IOWA FALLS *     N/A     29  28  94 W3        29.84R
$$

IAZ007>011-017>019-026>030-037>042-050>054-066-201400-
   NORTHEAST IOWA

CITY           SKY/WX    TMP DP  RH WIND       PRES   REMARKS
CEDAR RAPIDS     N/A     29  24  82 CALM      29.84R
CHARLES CITY *   N/A     28  28 100 NW7       29.84R WCI  21
CLINTON *        N/A     30  27  88 W6        29.87R WCI  24
DECORAH *        N/A     30  30 100 CALM      29.82R
DUBUQUE          N/A     26  22  84 SW6       29.84R WCI  19
MONTICELLO *     N/A     25  23  93 CALM      29.85R
OELWEIN *        N/A     27  27 100 CALM      29.84S
WATERLOO         N/A     23  21  92 CALM      29.85R
$$

IAZ064-065-067-068-078-201400-
   EAST CENTRAL IOWA

CITY           SKY/WX    TMP DP  RH WIND       PRES   REMARKS
DAVENPORT        N/A     34  27  75 SW5       29.88R WCI  30
IOWA CITY        N/A     27  22  81 CALM      29.88R
MT. PLEASANT * CLOUDY    32  28  86 SW7       29.88S WCI  26
MUSCATINE *      N/A     34  28  80 CALM      29.89R
QUAD CITIES      N/A     31  27  85 CALM      29.87R
$$

IAZ062-063-075>077-085>089-095>099-201400-
   SOUTHEAST IOWA

CITY           SKY/WX    TMP DP  RH WIND       PRES   REMARKS
BURLINGTON     CLOUDY    32  28  85 S6        29.88R WCI  26
FAIRFIELD *    CLOUDY    32  28  86 SW7       29.86S WCI  26
FORT MADISON * CLOUDY    36  30  80 S7        29.89S WCI  30
KEOKUK *       CLOUDY    34  30  86 SW9       29.89R WCI  26
OSKALOOSA *      N/A     30  27  88 SW6       29.87R WCI  24
OTTUMWA        CLOUDY    33  27  78 SW6       29.86R WCI  28
WASHINGTON *   PTCLDY    32  30  93 SW7       29.88R WCI  26
$$

ABBREVIATIONS USED IN REMARKS
   TC - TEMPERATURES IN CELSIUS
  WCI - WIND CHILL INDEX
   HX - HEAT INDEX
  VSB - VISIBILITY
$$





USA.gov is the U.S. government's official web portal to all federal, state and local government web resources and services.